Ravalli County (6S5)
Hamilton, MT
Field Elevation: 3642
Lat: 45°15.05N  Long: 114°07.31W
CTAF/Unicom Freq: 122.8000
   
     For Weather-by-Phone, call 406-375-9149
Weather Advisories
9/2/2014 23:37 Z
Altimeter 29.72" Hg
Wind 330° @ 4 KT
Gusts --
Visibility 10 SM
Temperature 26° C (79° F)
Dewpoint 3° C (37° F)
Relative Humidity 23%
Density Altitude 5,900 feet
Condensation Altitude 15,000 feet
  Wind and Runways
Indicated Runway = 34
History
 
 
More Info
All DigiWx sites map
NOAA Forecast
 
Airport IQ 5010
(S59) Libby
(79S) Fort Benton
 
about DigiWx
 
FAA Disclaimer: The data displayed is for advisory purposes only and is not to be used for flight planning or operations. For official data, please call 406-375-9149 to hear the current automated AWOS voice message.
  METAR 6S5 022337Z AUTO 33004KT 10SM 26/03 A2972